SCP
0 0 0 0 0 0 0 0 0 0 0 0 0 0 0 0 0 0 0 0 0 0 0 1 1 1 1 1 1 1 1 2 4 5 4 3 2 2 2 2 2 1 1 1
0 0 0 0 0 0 0 0 0 0 0 0 0 0 0 0 0 0 0 0 0 0 0 1 1 1 1 1 1 1 1 1 2 4 4 4 3 2 2 2 2 2 1 1
0 0 0 0 0 0 0 0 0 0 0 0 0 0 0 0 0 0 0 0 0 0 0 1 1 1 1 1 1 1 1 1 1 2 3 4 3 2 2 2 2 2 1 1
0 0 0 0 0 0 0 0 0 0 0 0 0 0 0 0 0 0 0 0 0 0 0 0 1 1 1 1 1 0 0 0 0 1 1 2 2 2 2 2 1 1 1 1
0 0 0 0 0 0 0 0 0 0 0 0 0 0 0 0 0 0 0 0 0 0 0 0 1 1 1 1 1 0 0 0 0 0 0 1 1 1 1 1 1 1 1 1
0 0 0 0 0 0 0 0 0 0 0 0 0 0 0 0 0 0 0 0 0 0 0 0 1 1 1 1 1 0 0 0 0 0 0 0 0 0 0 0 0 0 0 0
0 0 0 0 0 0 0 0 0 0 0 0 0 0 0 0 0 0 0 0 0 0 0 0 1 1 1 1 0 0 0 0 0 0 0 0 0 0 0 0 0 0 0 0
0 0 0 0 0 0 0 0 0 0 0 0 0 0 0 0 0 0 0 0 0 0 0 1 1 1 1 1 0 0 0 0 0 1 1 0 0 1 0 0 0 0 0 0
0 0 0 0 0 0 0 0 0 0 0 0 0 0 0 0 0 0 0 0 0 0 0 1 1 1 1 0 0 0 0 0 0 1 1 0 1 1 0 0 0 0 0 0
0 0 0 0 0 0 0 0 0 0 0 0 0 0 0 0 0 0 0 0 0 0 0 1 1 1 0 0 0 0 0 0 0 0 0 0 1 1 0 0 0 0 0 0
0 0 0 0 0 0 0 0 0 0 0 0 0 0 0 0 0 0 0 0 0 0 0 0 0 0 0 0 0 0 0 0 1 0 0 0 0 0 0 0 0 0 0 0
0 0 0 0 0 0 0 0 0 0 0 0 0 0 0 0 0 0 0 0 0 0 0 0 0 0 0 0 0 0 0 0 1 0 0 0 0 0 0 0 0 0 0 0
0 0 0 0 0 0 0 0 0 0 0 0 0 0 0 0 0 0 0 0 0 0 0 0 0 0 0 0 0 0 0 0 0 0 0 0 0 0 0 0 0 0 0 0
0 0 0 0 0 0 0 0 0 0 0 0 0 0 0 0 0 0 0 0 0 0 0 0 0 0 0 0 0 0 0 0 0 0 0 0 0 0 0 0 0 0 0 0
0 0 0 0 0 0 0 0 0 0 0 0 0 0 0 0 0 0 0 0 0 0 0 0 0 0 0 0 0 0 0 0 0 0 0 0 0 0 0 0 0 0 0 0
0 0 0 0 0 0 0 0 0 0 0 0 0 0 0 0 0 0 0 0 0 0 0 0 0 0 0 0 0 0 0 0 0 0 0 0 0 0 0 0 0 0 0 0
0 0 0 0 0 0 0 0 0 0 0 0 0 0 0 0 0 0 0 0 0 0 0 0 0 0 0 0 0 0 0 0 0 0 0 0 0 0 0 0 0 0 0 0
0 0 0 0 0 0 0 0 0 0 0 0 0 0 0 0 0 0 0 0 0 0 0 0 0 0 0 0 0 0 0 0 0 0 0 0 0 0 0 0 0 0 0 0
0 0 0 0 0 0 0 0 0 0 0 0 0 0 0 0 0 0 0 0 0 0 0 0 0 0 0 0 0 0 0 0 0 0 0 0 0 0 0 0 0 0 0 0
0 0 0 0 0 0 0 0 0 0 0 0 0 0 0 0 0 0 0 0 0 0 0 0 0 0 0 0 0 0 0 0 0 0 0 0 0 0 0 0 0 0 0 0
0 0 0 0 0 0 0 0 0 0 0 0 0 0 0 0 0 0 0 0 0 0 0 0 0 0 0 0 0 0 0 0 0 0 0 0 0 0 0 0 0 0 0 0
0 0 0 0 0 0 0 0 0 0 0 0 0 0 0 0 0 0 0 0 0 0 0 0 0 0 0 0 0 0 0 0 0 0 0 0 0 0 0 0 0 0 1 1
0 0 0 0 0 0 0 0 0 0 0 0 0 0 0 0 0 0 0 0 0 0 0 0 0 0 0 0 0 0 0 0 0 0 0 0 0 0 0 0 0 0 1 1
0 0 0 0 0 0 0 0 0 0 0 0 0 0 0 0 0 0 0 0 0 0 0 0 0 0 0 0 0 0 0 0 0 0 0 0 0 0 0 0 0 0 0 1
0 0 0 0 0 0 0 0 0 0 0 0 0 0 0 0 0 0 0 0 0 0 0 0 0 0 0 0 0 0 0 0 0 0 0 0 0 0 0 0 0 0 0 0
0 0 0 0 0 0 0 0 0 0 0 0 0 0 0 0 0 0 0 0 0 0 0 0 0 0 0 0 0 0 0 0 0 0 0 0 0 0 0 0 0 0 0 0
0 0 0 0 0 0 0 0 0 0 0 0 0 0 0 0 0 0 0 0 0 0 0 0 0 0 0 0 0 0 0 0 0 0 0 0 0 0 0 0 0 0 0 0
Wind_Speed
7 6 6 8 9 9 12 12 12 10 10 9 7 6 4 3 3 3 3 3 2 2 1 1 1 1 1 1 1 1 1 2 2 2 2 2 1 1 2 2 2 2 2 2
7 6 6 9 10 11 12 12 12 12 11 7 5 4 3 4 4 4 3 3 3 3 2 1 1 1 1 1 1 2 2 2 2 2 2 1 1 1 1 2 2 2 2 2
7 5 8 10 8 9 8 8 9 10 7 4 4 4 4 4 4 4 3 3 3 3 3 2 2 2 2 2 2 2 2 3 3 3 2 2 1 1 2 2 2 2 2 1
6 6 9 1 1 3 6 7 7 7 6 5 5 3 3 3 4 4 3 3 3 3 2 2 2 1 1 1 2 2 2 3 3 3 3 2 2 2 2 2 1 2 2 2
5 7 8 4 2 3 6 5 4 6 6 3 2 3 3 2 2 3 3 3 3 2 2 2 2 2 2 2 2 2 3 3 3 3 3 3 3 2 2 2 2 1 2 2
6 7 7 1 2 1 5 5 1 3 4 3 3 5 2 0 2 2 2 2 2 2 2 2 2 2 2 2 2 3 3 3 3 3 3 3 3 2 2 1 1 2 2 2
9 8 6 2 1 3 6 2 2 2 4 5 6 6 4 2 3 2 2 1 1 2 2 1 2 2 2 2 3 3 3 3 3 3 3 3 3 2 2 1 2 2 2 2
6 8 5 3 3 4 4 4 4 4 5 5 5 4 3 3 3 2 1 1 2 2 1 1 2 3 3 2 2 3 3 3 3 3 2 2 2 2 2 2 2 2 2 2
5 4 2 2 3 4 5 6 5 5 5 5 5 5 4 3 3 2 2 2 2 2 2 1 2 3 3 2 3 3 3 3 3 2 2 2 2 2 2 2 2 2 2 2
6 7 6 5 6 6 6 7 6 5 4 4 5 5 4 3 3 3 3 3 2 2 2 2 2 3 4 3 3 4 4 3 3 2 2 2 2 2 2 2 2 2 2 2
8 7 7 6 6 6 5 5 5 5 4 4 5 5 5 4 4 3 3 3 3 3 3 3 3 3 3 3 4 4 4 3 3 2 2 2 2 2 2 2 2 3 2 3
7 6 6 6 5 6 6 6 5 4 4 4 5 5 5 4 3 3 3 3 4 4 4 4 3 3 3 3 4 4 4 3 2 2 2 2 2 2 1 2 2 2 3 4
7 6 7 7 7 6 6 6 5 5 5 4 4 4 4 3 3 3 3 4 4 4 4 4 3 3 3 3 4 4 4 3 2 2 2 2 2 2 2 1 1 1 2 2
7 6 7 6 6 5 5 5 4 4 3 3 3 3 3 3 3 3 3 3 3 4 4 3 3 3 3 3 3 4 4 3 3 3 3 2 2 3 3 3 2 2 2 2
6 6 7 6 5 4 4 3 3 3 2 2 2 2 2 3 3 3 3 3 3 3 3 3 3 3 3 3 4 4 3 3 3 3 3 3 3 3 3 3 3 3 2 1
4 4 4 5 5 4 4 4 4 3 3 3 2 2 2 3 2 2 2 2 3 3 3 3 4 3 3 3 3 3 3 4 4 3 3 3 3 3 3 3 3 3 3 2
4 4 4 4 5 5 4 4 4 4 3 3 2 2 2 2 2 2 2 3 3 3 3 4 4 3 3 4 3 3 3 3 4 4 3 3 3 3 3 3 3 3 3 2
6 6 6 6 5 5 4 4 4 4 3 2 2 2 2 2 3 3 3 3 3 3 3 3 3 3 3 3 3 3 3 3 2 3 2 2 3 3 3 3 3 4 3 2
5 5 5 4 4 4 4 3 3 3 2 2 3 3 3 3 3 2 3 3 4 4 3 3 4 4 3 3 3 3 3 3 3 3 2 2 3 3 3 3 3 3 3 3
4 3 4 3 3 3 3 2 2 2 2 2 2 2 2 2 2 2 3 3 3 3 3 3 3 3 3 3 3 2 3 3 3 2 2 3 3 3 3 3 3 3 3 3
3 3 3 3 3 2 2 2 2 2 2 2 2 2 3 2 2 2 3 3 3 3 3 3 2 2 2 2 3 2 2 2 2 2 3 2 3 3 3 3 3 4 4 3
2 2 3 2 2 2 2 1 1 1 1 1 2 2 2 2 2 3 3 3 2 2 2 2 2 2 1 2 2 2 2 2 2 2 2 2 3 3 3 3 4 4 3 3
2 2 2 2 2 2 2 1 1 1 2 2 2 3 3 3 2 2 3 2 1 2 2 2 2 1 1 1 1 1 2 2 3 3 2 3 3 3 3 3 3 3 3 3
2 1 2 1 1 1 1 2 2 2 2 2 2 2 2 2 2 2 2 2 2 2 2 2 2 2 2 1 1 1 2 2 2 3 3 3 3 3 3 3 3 3 4 4
1 1 1 1 1 1 2 2 2 2 2 1 2 2 2 2 2 2 2 1 2 2 2 2 2 2 1 1 1 1 1 2 2 2 3 3 3 3 3 3 3 3 4 4
1 1 2 2 2 2 1 1 1 1 1 1 2 2 1 1 1 1 1 1 2 2 1 1 1 2 1 1 1 1 1 1 2 2 2 2 3 3 3 3 3 3 3 3
2 2 1 1 2 2 2 2 2 2 2 2 2 2 2 1 1 1 1 1 1 1 1 1 1 1 1 1 1 1 1 1 2 2 2 2 2 3 3 4 3 3 3 3
Wind_Direction
272 281 268 265 259 242 242 254 265 275 277 285 288 279 262 248 234 222 219 218 224 227 233 241 281 304 327 333 328 316 300 296 280 284 298 295 277 271 265 264 267 259 256 257
257 250 260 263 259 253 251 255 259 269 276 287 293 277 250 237 230 230 232 239 244 245 249 248 259 278 292 311 316 296 295 294 286 278 283 274 285 289 291 283 274 255 250 251
267 265 267 256 253 240 237 240 249 260 277 289 276 262 251 251 239 235 241 244 243 249 255 262 268 271 276 286 291 290 298 299 300 292 275 271 274 268 272 275 278 274 268 270
275 268 251 278 69 255 247 254 254 266 283 284 284 288 270 258 249 252 256 255 248 247 250 258 262 272 283 277 277 288 298 300 297 297 288 271 265 263 266 267 262 262 265 258
254 261 267 253 218 235 246 256 255 260 273 281 292 267 249 224 243 265 266 260 253 252 251 244 245 252 260 276 285 285 298 305 299 289 279 275 270 272 274 270 272 272 264 248
241 257 262 283 102 265 256 248 204 251 260 255 258 265 275 254 263 273 269 266 260 250 249 240 233 240 247 265 283 292 301 301 298 294 279 272 273 274 279 281 280 268 254 245
242 254 266 2 102 220 244 332 46 276 272 259 265 299 323 285 271 270 259 259 255 248 245 244 233 236 245 259 280 301 306 300 299 297 288 281 278 269 274 284 280 277 266 242
228 238 250 106 175 234 315 342 309 288 280 269 278 300 286 271 269 264 248 239 248 253 261 248 239 242 251 271 297 303 300 296 297 301 300 288 279 277 271 269 262 265 265 261
234 253 355 196 252 296 307 297 302 295 287 269 269 274 269 258 250 243 239 240 244 243 245 248 244 254 261 276 289 288 287 287 289 291 295 289 274 267 265 258 255 256 255 258
248 252 262 265 266 272 280 287 295 291 282 266 268 269 261 252 239 233 234 241 238 231 236 246 257 262 266 270 270 270 276 283 285 286 294 292 284 274 265 259 254 252 258 264
256 266 272 265 265 269 277 281 286 285 277 266 263 260 254 249 241 236 238 238 239 238 241 248 249 259 262 260 264 270 274 272 269 269 276 283 285 289 278 278 294 283 273 266
260 270 269 283 290 286 276 271 270 271 275 271 263 263 258 252 243 240 237 238 242 246 250 253 251 256 263 264 262 265 267 266 258 252 257 265 276 296 317 284 318 310 310 304
276 287 284 287 288 281 271 273 272 265 265 271 269 267 259 250 237 239 240 241 243 248 256 258 255 260 271 270 265 263 264 263 260 254 248 255 262 272 279 250 232 254 265 290
266 270 269 270 278 279 273 272 270 267 267 270 272 271 260 249 241 242 249 253 253 253 255 257 258 265 272 273 270 267 267 258 256 255 251 250 255 263 270 276 273 268 243 242
260 262 269 280 280 278 270 261 260 268 274 271 262 261 257 254 251 255 259 256 249 248 253 256 261 270 271 266 267 270 270 261 255 256 253 255 254 254 255 262 271 275 281 253
281 271 261 260 263 265 262 257 256 262 267 269 270 266 261 260 265 268 265 252 243 246 249 253 260 267 264 258 264 267 262 263 262 252 245 247 248 249 250 252 256 263 266 276
253 258 258 260 265 263 261 261 258 257 258 258 264 269 264 259 262 266 270 264 253 251 249 252 261 268 264 261 259 260 261 247 241 247 245 246 248 248 249 250 252 257 259 264
254 261 263 261 261 261 266 272 272 268 261 258 254 248 246 245 248 252 258 260 254 254 258 259 265 267 261 256 250 255 253 250 248 250 250 249 252 249 250 251 251 256 261 247
258 267 275 276 274 266 268 273 273 266 255 247 240 241 248 255 257 250 248 246 247 256 265 268 270 262 250 237 250 250 243 241 242 245 248 244 246 249 250 249 251 253 257 259
263 269 278 285 288 284 279 280 278 272 265 254 245 251 262 264 256 249 244 246 250 265 271 269 262 255 248 237 244 245 233 233 235 235 239 244 248 250 249 251 257 258 258 258
273 275 281 287 295 299 288 276 270 271 274 251 237 247 257 264 259 249 250 258 265 273 268 251 252 259 253 251 238 234 227 230 233 235 240 244 248 248 247 250 257 260 260 260
281 282 286 290 296 307 310 296 274 267 272 259 253 257 261 263 259 254 253 265 281 285 271 242 249 265 249 222 228 226 224 226 232 235 239 243 246 247 251 255 256 257 259 261
289 289 290 290 292 301 309 305 291 276 268 264 251 250 251 258 255 257 268 277 273 275 272 256 278 238 185 199 217 223 225 225 233 238 240 244 247 250 254 257 260 264 265 268
289 289 288 292 290 286 299 319 312 292 281 272 266 265 260 254 255 257 272 272 274 278 264 270 266 215 189 223 227 236 240 234 236 238 242 246 252 257 259 258 262 266 265 268
273 270 258 261 270 276 288 305 306 299 296 293 293 287 273 260 262 271 268 251 251 261 262 246 242 221 208 231 232 236 247 250 254 250 244 245 249 255 258 260 263 264 265 264
263 263 260 262 271 272 269 264 270 277 278 287 299 299 292 283 270 269 265 246 233 250 257 237 219 219 233 246 250 252 259 258 246 250 260 262 261 262 262 262 264 264 269 272
254 253 249 255 258 256 254 254 260 265 267 273 287 294 291 282 275 276 270 255 236 236 242 242 233 224 228 240 256 265 268 267 266 266 265 266 267 268 267 266 266 269 274 275